Find Starlink 5148

NORAD ID: 53978 Int'l Des: 2022-125 Owner: SPXS Country: US Constellation: starlink operational
LEOCIRCULAR

Live Position

Loading 3D Globe...

About Starlink 5148

Description loading...

Upcoming Passes

Passes for default location (London). Set your location on the main map for personalized predictions.

Altitude History

Loading altitude history...

Two-Line Element Set

1 53978U 22125Q 26119.36441345 .00000517 00000-0 50572-4 0 9999
2 53978 53.2193 351.5467 0001432 87.4068 272.7088 15.08838041197044
Epoch: Apr 29, 2026 • Age: 15 hours

Current Status

Altitude 542.1 km
Velocity 7.60 km/s
Sub-Earth Point 37.92°N, 177.19°E
Launch Date Oct 5, 2022
Age 3.5 years
Type internet

Technical Details

Classification Payload
Mass 305.00 kg
Dry Mass 290.00 kg
Total Mass 305.00 kg
Length 0.20 m
Diameter 2.80 m
Span 9.00 m
Shape Box + pan
Manufacturer SPXS
Bus Type Starlink
Phase Status In Orbit
Owner/State SPXS/US

Most Searched